This is the latest recevied weather packets stored in our database for station/object VA3JLF-1. If no packets are shown the sender has not sent any weather packets the latest 10 day(s).
| Time | Temp. | Humidity | Pressure | Rain* | Wind** | Luminosity | Snow |
|---|---|---|---|---|---|---|---|
| 1778097549 | 10° C | 85% | 1006.4 hPa | 0 mm | - | - | - |
| 1778096948 | 9.44° C | 87% | 1006.4 hPa | 0 mm | - | - | - |
| 1778096347 | 9.44° C | 84% | 1006.4 hPa | 0 mm | - | - | - |
| 1778095747 | 9.44° C | 84% | 1006.6 hPa | 0 mm | - | - | - |
| 1778095148 | 9.44° C | 84% | 1006.2 hPa | 0 mm | - | - | - |
| 1778094547 | 9.44° C | 85% | 1006.7 hPa | 0 mm | - | - | - |
| 1778093947 | 9.44° C | 84% | 1005.9 hPa | 0 mm | - | - | - |
| 1778093347 | 9.44° C | 81% | 1006.4 hPa | 0 mm | - | - | - |
| 1778092748 | 9.44° C | 80% | 1006.4 hPa | 0 mm | - | - | - |
| 1778092147 | 9.44° C | 81% | 1006.5 hPa | 0 mm | - | - | - |
| 1778091547 | 9.44° C | 84% | 1006.7 hPa | 0 mm | - | - | - |
| 1778090947 | 8.89° C | 85% | 1006.6 hPa | 0 mm | - | - | - |
| 1778090348 | 8.33° C | 85% | 1006.5 hPa | 0 mm | - | - | - |
| 1778089747 | 8.33° C | 87% | 1006.6 hPa | 0 mm | - | - | - |
| 1778089147 | 8.33° C | 88% | 1006.2 hPa | 0 mm | - | - | - |
| 1778088547 | 7.78° C | 88% | 1006.4 hPa | 0 mm | - | - | - |
| 1778087947 | 7.78° C | 89% | 1006.4 hPa | 0 mm | - | - | - |
| 1778087348 | 8.33° C | 88% | 1006.6 hPa | 0 mm | - | - | - |
| 1778086747 | 7.78° C | 88% | 1006.2 hPa | 0 mm | - | - | - |
| 1778086147 | 8.33° C | 89% | 1006.4 hPa | 0 mm | - | - | - |
| 1778085547 | 7.78° C | 89% | 1006.1 hPa | 0 mm | - | - | - |
| 1778084947 | 7.78° C | 87% | 1006.2 hPa | 0 mm | - | - | - |
| 1778084348 | 7.78° C | 88% | 1006.2 hPa | 0 mm | - | - | - |
| 1778083747 | 8.89° C | 90% | 1005.8 hPa | 0 mm | - | - | - |
| 1778083147 | 7.78° C | 91% | 1006.1 hPa | 0 mm | - | - | - |
* Rain latest hour (hover to see other rain measurements)
** Current wind speed in m/s (hover to see current wind gust speed)